Location: Sungai Laei
(2.6000°N, 113.7167°E)
Time: 21:06:44
(UTC+00:00)

CZ-2C R/B - Visible Passes

Search period start: 05 October 2022 00:00
Search period end: 15 October 2022 00:00
Orbit: 705 x 906 km, 98.1° (Epoch: 05 October)

Date Brightness Start Highest point End Pass type
(mag) Time Alt. Az. Time Alt. Az. Time Alt. Az.
05 Oct 5.6 19:38:39 10° ENE 19:41:59 17° E 19:45:13 10° SE visible
05 Oct 3.8 21:17:09 10° NNW 21:21:37 28° WNW 21:25:54 10° SW visible
06 Oct 3.0 20:51:33 10° N 20:56:43 56° WNW 21:01:37 10° SSW visible
07 Oct 3.2 20:26:33 10° NNE 20:31:46 72° ESE 20:36:43 10° S visible
08 Oct 4.5 20:02:06 10° NE 20:06:47 34° E 20:11:15 10° SSE visible
08 Oct 4.6 21:43:51 10° NW 21:46:15 13° WNW 21:48:38 10° WSW visible
09 Oct 5.6 19:38:30 10° ENE 19:41:46 17° E 19:44:56 10° SE visible
09 Oct 3.8 21:17:06 10° NNW 21:21:24 27° WNW 21:25:33 10° SW visible
10 Oct 3.0 20:51:28 10° N 20:56:29 54° WNW 21:01:17 10° SSW visible
11 Oct 3.1 20:26:25 10° NNE 20:31:33 73° ESE 20:36:24 10° S visible
12 Oct 4.4 20:01:57 10° NE 20:06:32 35° E 20:10:57 10° SSE visible
12 Oct 4.6 21:43:56 10° NW 21:46:02 13° WNW 21:48:07 10° W visible
13 Oct 5.5 19:38:20 10° ENE 19:41:32 17° E 19:44:38 10° SE visible
13 Oct 3.8 21:17:01 10° NNW 21:21:10 26° WNW 21:25:10 10° SW visible
14 Oct 3.0 20:51:21 10° N 20:56:15 52° WNW 21:00:57 10° SSW visible
